FW3943 Weather Reports


Display with metric or nautical units.
time (UTC)temp
F
wind
direction
speed
MPH
gust
MPH
rain 1hr
in
rain 24hr
in
rain mn
in
humidity
%
barometer
mb
20260507230104 45 144 3.0 12.0 0.00 1.36 1.36 100 1002.7
20260507224656 45 125 5.0 9.0 0.00 1.36 1.36 100 1003.1
20260507223100 45 140 2.0 6.0 0.00 1.36 1.36 100 1002.8
20260507221555 45 175 4.0 10.0 0.00 1.36 1.36 100 1003.0
20260507220054 46 138 7.0 13.0 0.00 1.36 1.36 100 1003.0
20260507214615 47 165 6.0 13.0 0.01 1.36 1.36 100 1003.2
20260507213104 48 159 9.0 19.0 0.01 1.36 1.36 100 1003.5
20260507211607 48 138 9.0 13.0 0.02 1.36 1.36 100 1003.3
20260507210055 48 121 11.0 18.0 0.07 1.36 1.36 100 1003.0
20260507204601 48 146 9.0 15.0 0.10 1.35 1.35 100 1002.7
20260507203053 48 138 7.0 13.0 0.19 1.35 1.35 100 1003.6
20260507201547 48 145 6.0 12.0 0.28 1.34 1.34 100 1003.9
20260507200045 48 138 4.0 9.0 0.40 1.29 1.29 100 1004.2
20260507194613 48 152 6.0 9.0 0.60 1.25 1.25 100 1004.5
20260507193041 48 161 3.0 6.0 0.65 1.15 1.15 100 1005.0
20260507191543 48 131 5.0 10.0 0.73 1.05 1.05 100 1005.3
20260507190034 46 225 5.0 13.0 0.72 0.89 0.89 100 1005.9
20260507184539 46 186 8.0 15.0 0.52 0.65 0.65 100 1005.9
20260507183037 45 164 5.0 11.0 0.40 0.51 0.51 100 1005.8
20260507181531 45 175 6.0 12.0 0.21 0.32 0.32 100 1006.3
20260507180031 44 169 7.0 13.0 0.07 0.17 0.17 100 1006.1
20260507174536 45 142 13.0 21.0 0.03 0.13 0.13 100 1005.6
20260507173035 45 173 7.0 17.0 0.01 0.11 0.11 100 1005.9
20260507171525 45 171 14.0 20.0 0.02 0.11 0.11 100 1006.4
20260507170023 45 149 10.0 16.0 0.01 0.10 0.10 100 1006.4
20260507164522 45 150 9.0 17.0 0.01 0.10 0.10 100 1006.9
20260507163020 45 147 9.0 15.0 0.01 0.10 0.10 100 1007.3
20260507161517 45 145 8.0 19.0 0.00 0.09 0.09 100 1007.8
20260507160020 45 163 9.0 17.0 0.00 0.09 0.09 100 1008.3
20260507154527 44 161 11.0 18.0 0.00 0.09 0.09 100 1008.7
20260507153028 44 127 7.0 12.0 0.00 0.09 0.09 100 1009.4
20260507151509 44 139 9.0 18.0 0.00 0.09 0.09 100 1010.0
20260507150008 45 169 8.0 18.0 0.00 0.09 0.09 100 1010.1
20260507144507 45 146 12.0 18.0 0.00 0.09 0.09 100 1010.2
20260507143005 45 140 14.0 19.0 0.00 0.09 0.09 100 1010.4
20260507141501 45 143 12.0 20.0 0.00 0.09 0.09 100 1010.7
20260507140100 45 153 9.0 20.0 0.00 0.09 0.09 100 1011.3
20260507134601 45 150 9.0 18.0 0.00 0.09 0.09 100 1011.2
20260507133109 45 151 14.0 18.0 0.00 0.09 0.09 100 1011.3
20260507131612 45 171 10.0 14.0 0.00 0.09 0.09 100 1011.9
20260507130057 45 164 11.0 18.0 0.01 0.09 0.09 100 1011.6
20260507124558 45 183 8.0 19.0 0.01 0.09 0.09 100 1011.7
20260507123055 46 150 14.0 20.0 0.01 0.09 0.09 100 1011.5
20260507121552 45 141 14.0 21.0 0.01 0.09 0.09 100 1012.0
20260507120050 45 151 11.0 24.0 0.00 0.08 0.08 100 1011.8
20260507114548 45 144 16.0 24.0 0.03 0.08 0.08 100 1012.3
20260507113046 45 169 14.0 20.0 0.04 0.08 0.08 100 1012.4
20260507111544 45 199 11.0 23.0 0.04 0.08 0.08 100 1012.4
20260507110042 45 154 15.0 25.0 0.04 0.08 0.08 100 1012.4
20260507104539 46 142 19.0 33.0 0.02 0.05 0.05 100 1012.4
20260507103036 45 132 12.0 20.0 0.01 0.04 0.04 100 1012.5
20260507101534 44 146 11.0 21.0 0.01 0.04 0.04 100 1012.7
20260507100035 44 151 13.0 21.0 0.00 0.03 0.03 100 1012.6
20260507094531 44 140 9.0 14.0 0.00 0.03 0.03 100 1012.9
20260507093029 44 148 4.0 10.0 0.01 0.03 0.03 100 1012.7
20260507091528 45 213 8.0 18.0 0.01 0.03 0.03 100 1012.5
20260507090026 45 123 9.0 16.0 0.01 0.03 0.03 100 1012.6
20260507084522 45 177 9.0 15.0 0.01 0.03 0.03 100 1013.1
20260507083021 45 186 4.0 10.0 0.00 0.02 0.02 100 1013.2
20260507081520 44 196 3.0 8.0 0.01 0.02 0.02 100 1013.2
20260507080018 44 194 4.0 11.0 0.01 0.02 0.02 100 1013.2
20260507074516 44 161 3.0 10.0 0.01 0.02 0.02 100 1013.4
20260507073015 44 151 4.0 11.0 0.02 0.02 0.02 100 1013.9
20260507071534 44 175 2.0 7.0 0.01 0.01 0.01 100 1014.3
20260507070013 44 199 7.0 12.0 0.01 0.01 0.01 100 1014.6
20260507064513 45 142 8.0 14.0 0.01 0.01 0.01 100 1014.8
20260507063008 46 158 9.0 18.0 0.00 0.00 0.00 100 1014.9
20260507061506 46 136 9.0 16.0 0.00 0.00 0.00 100 1014.9
20260507060004 46 171 7.0 12.0 0.00 0.00 0.00 100 1015.3
20260507054503 46 156 7.0 10.0 0.00 0.00 0.00 100 1015.3
20260507053129 45 152 7.0 10.0 0.00 0.00 0.00 100 1015.6
20260507051605 45 136 8.0 12.0 0.00 0.00 0.00 100 1016.0
20260507050055 45 129 7.0 10.0 0.00 0.00 0.00 100 1016.2
20260507044557 45 145 4.0 9.0 0.00 0.00 0.00 100 1016.6
20260507043053 45 143 3.0 8.0 0.00 0.00 0.00 100 1016.8
20260507041549 45 192 5.0 8.0 0.00 0.00 0.00 100 1017.3
20260507040047 45 171 3.0 10.0 0.00 0.00 0.00 100 1017.2
20260507034547 45 156 3.0 0.0 0.00 0.00 0.00 100 1017.5
20260507033050 44 165 3.0 7.0 0.00 0.00 0.00 100 1017.8
20260507031541 44 178 4.0 8.0 0.00 0.00 0.00 100 1018.1
20260507030039 44 183 5.0 9.0 0.00 0.00 0.00 100 1018.1
20260507024540 44 146 6.0 10.0 0.00 0.00 0.00 100 1018.4
20260507023038 44 135 7.0 10.0 0.00 0.00 0.00 100 1018.7
20260507021535 43 152 1.0 10.0 0.00 0.00 0.00 100 1018.8
20260507020035 44 177 4.0 9.0 0.00 0.00 0.00 100 1018.8
20260507014535 44 170 5.0 11.0 0.00 0.00 0.00 100 1019.0
20260507013031 44 146 7.0 12.0 0.00 0.00 0.00 100 1019.1
20260507011537 45 167 10.0 14.0 0.00 0.00 0.00 100 1019.1
20260507010030 45 169 7.0 11.0 0.00 0.00 0.00 100 1019.4
20260507004536 46 150 10.0 16.0 0.00 0.00 0.00 100 1019.5
20260507003029 46 166 10.0 14.0 0.00 0.00 0.00 100 1019.2
20260507001528 45 168 5.0 10.0 0.00 0.00 0.00 100 1019.6
20260507000028 45 160 6.0 9.0 0.00 0.00 0.00 100 1019.5
20260506234528 44 144 6.0 12.0 0.00 0.00 0.00 100 1019.7
20260506233028 44 159 7.0 14.0 0.00 0.00 0.00 100 1019.6